Wind_Speed
47 52 55 58 58 58 55 51 47 50 52 50 50 51 50 50 49 47 47 42 39 36 36 37 34 30 24 18 17 10 11 14 4 11 14 8 6 10 12 13 15 19 24 28 34
44 52 56 59 58 59 58 54 51 50 51 50 49 50 51 49 48 48 49 46 43 41 39 41 37 34 28 22 23 20 21 20 14 10 11 5 5 13 12 13 13 16 23 25 29
41 51 57 60 59 59 59 57 55 53 51 50 50 49 50 53 51 51 53 50 48 45 42 45 42 39 31 31 29 26 27 22 16 12 11 8 17 20 16 17 13 19 23 22 25
38 49 58 62 62 60 59 59 58 57 54 52 51 52 52 53 55 54 56 54 50 49 45 46 46 44 36 34 33 32 30 28 23 17 16 11 22 12 23 7 9 21 25 19 20
38 46 58 64 65 64 62 61 62 61 59 56 54 53 53 54 54 55 54 54 54 52 50 51 49 46 43 45 43 39 38 36 32 22 19 18 11 21 23 7 18 20 22 18 18
40 45 54 63 67 67 66 64 62 63 63 60 59 57 56 56 52 53 55 56 56 57 56 56 53 51 48 46 47 44 43 42 36 33 25 21 17 17 15 29 27 23 18 19 15
45 46 50 62 68 71 69 69 67 66 65 65 64 63 63 59 53 55 56 58 59 59 59 59 57 57 56 52 51 47 46 46 43 38 32 26 24 23 15 17 16 17 22 22 16
51 51 52 57 68 71 72 71 72 70 69 68 67 68 70 60 58 64 60 60 60 61 61 59 58 59 60 58 56 48 48 47 47 45 38 33 28 30 27 25 26 29 25 26 7
55 57 58 59 64 73 73 74 74 73 72 71 71 71 72 64 65 66 63 64 60 60 60 57 56 56 59 60 61 55 52 50 50 48 46 40 36 34 34 36 35 25 28 23 11
59 60 62 64 67 70 77 78 75 76 76 73 73 74 73 70 68 69 70 67 65 62 61 57 57 57 60 59 59 57 57 54 50 49 46 45 43 40 38 40 40 30 29 32 35
61 63 66 68 69 70 74 77 80 80 78 79 77 79 79 75 74 74 74 71 69 65 64 63 59 60 63 61 59 59 57 57 57 53 50 49 49 48 46 40 39 37 31 30 36
68 70 71 72 74 73 74 76 77 78 81 83 83 83 81 80 78 75 77 75 71 69 68 64 60 66 65 59 55 58 55 53 57 55 49 46 47 44 47 43 42 41 34 33 36
77 79 79 79 79 79 80 79 77 76 77 81 82 84 85 83 82 80 79 79 75 73 71 67 63 72 65 60 56 55 55 55 54 55 53 47 46 44 45 45 44 46 43 42 42
84 85 86 84 84 85 87 85 82 81 80 83 81 84 85 82 82 83 83 81 79 74 75 70 68 69 65 61 57 56 54 52 52 50 49 46 41 43 45 46 46 47 48 51 47
82 89 93 92 92 92 93 91 90 89 90 90 88 86 83 79 84 84 85 81 79 79 76 65 68 66 64 61 60 58 57 53 52 48 45 44 44 42 46 49 50 49 45 44 37
77 83 89 95 100 101 99 98 98 98 99 98 94 91 87 83 84 85 82 82 81 78 74 69 71 68 65 66 61 65 59 53 52 47 45 44 41 41 44 48 52 50 48 43 37
60 71 79 86 96 99 104 108 104 104 105 105 101 97 94 91 89 90 84 81 80 78 76 72 71 70 70 68 62 67 60 56 52 47 50 44 41 39 43 42 46 48 50 37 29
47 53 60 72 80 92 100 104 108 113 109 104 104 101 103 98 97 95 89 85 83 80 79 76 77 75 71 69 67 69 66 59 54 50 55 46 43 43 39 39 41 45 45 46 39
43 43 48 57 67 78 88 98 105 108 109 112 110 106 107 104 101 99 95 94 90 87 85 81 80 80 77 75 75 74 69 63 62 59 58 47 50 42 41 41 39 44 47 49 53
39 35 32 41 54 66 76 86 94 101 104 106 110 113 113 106 104 104 103 100 97 93 90 86 85 86 85 84 80 76 75 71 64 61 60 54 52 47 46 44 42 40 50 48 46
40 34 25 27 37 50 60 71 78 87 98 107 108 108 110 113 113 110 107 105 103 99 96 92 89 90 90 82 83 81 79 74 67 63 62 62 56 52 49 47 46 38 40 46 53
46 36 26 19 24 33 44 52 61 72 84 96 107 110 109 108 110 115 116 110 106 104 101 100 96 96 91 90 90 88 85 80 74 68 65 65 63 58 54 48 47 47 42 45 43
57 45 30 21 18 22 30 39 48 57 68 81 95 106 111 111 112 110 111 114 113 113 110 105 100 97 96 96 92 89 86 85 81 75 68 68 68 64 60 56 51 52 48 53 54
60 53 42 24 16 17 22 32 41 49 56 66 78 89 103 110 113 112 113 111 114 116 114 112 106 101 98 97 96 93 92 91 86 79 74 71 73 70 65 63 58 55 55 54 56
61 58 50 36 23 14 13 21 30 41 50 57 64 76 89 100 110 113 113 113 114 115 115 113 110 108 105 103 101 98 97 95 89 83 80 77 74 76 70 68 63 60 57 56 56
59 58 54 45 34 24 17 14 19 28 38 50 56 62 75 87 99 108 113 114 114 111 109 110 111 110 108 108 106 102 100 99 94 88 85 81 76 77 74 71 65 64 61 62 61
60 61 57 54 42 33 26 22 21 26 35 45 53 61 65 73 85 98 105 112 116 113 110 107 106 106 107 107 109 107 105 103 98 94 89 85 79 82 80 76 73 69 68 67 68
Wind_Direction
206 205 204 205 207 208 207 209 209 207 206 207 211 213 216 220 223 224 228 230 232 234 235 232 218 219 203 225 229 196 214 148 246 293 334 329 337 325 358 1 347 358 4 356 2
207 206 205 206 208 209 209 210 212 212 211 210 212 215 217 219 223 226 227 228 231 234 236 233 230 223 212 218 238 237 228 251 273 291 311 235 296 327 332 335 337 6 3 357 358
208 206 207 206 210 209 211 212 213 215 215 214 215 217 218 221 221 223 228 231 233 235 235 235 234 232 227 224 239 245 250 254 260 269 247 261 322 312 328 317 338 4 358 357 347
211 208 207 209 210 212 213 214 214 216 217 218 218 217 220 222 223 225 228 232 235 236 238 239 237 231 230 233 239 251 252 254 257 254 255 289 310 321 294 355 348 346 348 349 353
214 211 208 210 212 214 216 216 218 218 219 221 223 224 224 225 226 228 230 230 232 234 237 238 238 237 241 242 248 249 249 251 254 251 247 262 275 255 319 248 332 323 332 341 350
217 214 212 211 214 216 218 220 220 220 221 223 224 227 227 227 227 230 231 232 235 234 236 239 243 245 245 247 249 252 254 251 255 257 250 244 255 250 244 267 279 302 324 326 331
220 219 217 215 215 217 220 221 222 223 224 224 227 228 229 228 229 233 234 232 234 237 238 239 242 245 246 250 251 251 252 254 253 258 254 243 242 248 259 232 246 287 298 308 313
223 223 221 219 219 219 222 224 224 225 227 227 227 230 231 228 232 234 234 235 235 236 237 239 241 244 246 250 252 251 253 255 255 255 256 256 244 235 236 236 256 280 288 296 288
233 228 225 224 222 222 223 225 227 228 229 230 231 232 232 228 235 236 237 237 238 239 239 239 241 242 243 245 249 252 252 250 253 256 258 254 246 246 243 244 257 260 263 263 278
237 235 233 230 227 224 225 227 227 228 229 231 233 234 235 232 233 235 236 236 238 240 241 241 243 245 246 245 247 250 253 255 254 252 252 253 252 253 250 244 252 250 250 250 253
241 239 237 233 232 230 229 229 229 230 231 231 233 235 235 233 232 234 236 235 239 240 241 241 242 245 244 244 247 249 251 254 252 252 252 252 252 254 253 245 239 241 240 249 244
247 244 240 237 236 234 233 233 232 231 233 233 233 235 235 235 235 233 238 235 237 239 240 241 242 244 243 244 245 246 246 248 250 250 250 250 247 246 249 245 235 234 233 230 238
249 247 244 240 237 235 235 234 234 233 233 234 235 236 233 235 235 235 237 238 235 238 239 238 239 243 242 244 244 245 244 244 249 250 250 244 247 242 244 248 240 227 230 232 243
251 249 249 245 242 238 236 234 234 234 234 236 233 235 236 234 235 235 235 236 236 236 238 236 238 241 241 241 241 242 241 243 242 244 245 243 239 239 244 243 241 239 240 240 248
255 251 249 247 244 242 240 236 234 233 233 234 234 234 236 234 235 234 234 234 236 236 236 234 235 235 238 237 236 235 236 238 241 239 242 241 239 236 240 239 240 243 242 245 251
261 257 253 250 247 244 242 240 237 235 234 234 234 234 236 235 235 237 235 236 236 237 236 233 235 236 238 238 235 238 235 232 236 237 237 238 238 239 237 237 235 235 240 243 235
269 262 256 251 246 244 242 240 239 237 235 235 233 234 233 232 233 237 236 235 235 235 236 233 233 234 235 236 235 239 235 232 232 236 239 235 234 236 240 241 238 231 232 232 209
286 271 259 251 246 243 241 240 238 237 237 236 236 235 234 233 233 234 234 234 235 234 234 233 234 234 234 235 234 236 235 230 227 238 234 232 235 232 237 244 243 237 231 227 211
302 284 265 251 246 242 238 238 237 238 236 236 235 234 235 235 233 234 233 233 232 233 232 231 232 235 235 236 235 236 236 230 226 228 232 229 235 231 233 237 242 239 229 232 235
320 305 282 256 246 241 238 236 235 234 234 235 235 234 235 234 235 235 234 233 233 232 233 232 232 234 234 235 236 238 237 233 229 224 233 229 235 230 233 236 239 239 236 230 231
339 322 302 272 249 240 237 238 235 233 231 232 232 233 233 232 233 234 235 234 234 233 233 233 233 235 236 237 238 238 238 236 233 229 228 232 230 232 231 234 240 244 234 236 230
353 345 325 290 262 247 238 236 234 233 231 229 230 231 230 229 231 232 232 233 233 234 234 233 231 233 236 237 237 237 238 236 233 229 228 232 232 229 233 232 238 240 237 233 232
356 356 350 319 279 253 243 237 233 233 231 230 230 228 230 228 228 229 230 230 230 232 232 231 231 232 233 235 236 239 241 240 238 233 230 229 236 232 229 232 230 236 240 230 225
0 -0 357 351 314 273 249 237 236 232 230 230 228 228 229 229 229 228 228 229 229 229 230 230 230 230 232 234 234 236 238 239 238 236 234 232 235 235 229 230 232 231 233 239 231
9 6 2 357 352 322 278 249 241 233 231 230 229 228 226 228 229 228 229 228 230 229 228 229 229 230 229 232 235 235 237 238 237 235 235 233 233 236 232 228 230 232 232 234 239
14 14 12 5 357 347 323 282 247 238 237 233 230 229 228 227 226 227 228 229 229 230 229 229 229 228 228 231 231 233 236 237 238 236 234 234 233 236 235 232 229 233 233 233 233
11 18 17 15 5 354 335 311 284 257 238 232 233 230 227 228 226 226 226 227 229 229 228 227 228 228 228 228 231 232 232 235 236 236 235 234 232 234 234 233 231 231 231 232 234
Height
10894 10899 10906 10912 10918 10923 10929 10935 10940 10945 10949 10954 10959 10963 10968 10971 10975 10979 10983 10988 10991 10994 10997 11000 11005 11009 11013 11015 11017 11019 11015 11018 11021 11021 11019 11020 11020 11020 11019 11018 11017 11016 11014 11013 11009
10889 10894 10900 10906 10912 10918 10923 10930 10935 10940 10944 10949 10953 10958 10961 10966 10970 10974 10978 10982 10986 10989 10993 10996 11001 11005 11010 11012 11013 11014 11017 11016 11018 11019 11019 11018 11019 11019 11019 11017 11014 11016 11017 11015 11013
10883 10888 10894 10900 10906 10911 10917 10923 10929 10934 10938 10943 10947 10951 10955 10959 10963 10966 10970 10975 10980 10984 10989 10991 10995 11001 11005 11007 11009 11011 11012 11015 11017 11019 11019 11018 11021 11020 11017 11015 11015 11015 11017 11019 11016
10878 10882 10887 10893 10898 10904 10911 10916 10921 10926 10931 10936 10940 10944 10948 10951 10955 10959 10964 10970 10974 10979 10984 10985 10990 10997 11001 11003 11005 11007 11007 11010 11013 11017 11018 11019 11018 11020 11017 11016 11014 11017 11017 11019 11019
10872 10876 10881 10886 10891 10896 10902 10908 10913 10918 10923 10928 10933 10936 10940 10942 10948 10954 10958 10961 10966 10971 10975 10979 10984 10991 10995 10996 10997 10999 11004 11007 11010 11015 11017 11019 11019 11021 11018 11015 11015 11016 11016 11019 11022
10865 10868 10872 10877 10882 10887 10892 10899 10904 10909 10914 10919 10924 10927 10931 10934 10945 10945 10948 10952 10956 10961 10966 10972 10978 10982 10987 10990 10992 10994 10997 11002 11006 11010 11015 11018 11020 11021 11019 11019 11017 11018 11017 11018 11022
10858 10861 10864 10868 10872 10877 10882 10887 10893 10899 10903 10909 10913 10917 10918 10927 10936 10936 10938 10943 10947 10952 10957 10966 10970 10973 10977 10981 10985 10989 10990 10996 11001 11005 11011 11016 11018 11019 11020 11017 11018 11016 11018 11019 11020
10849 10852 10855 10858 10862 10866 10871 10876 10882 10888 10891 10896 10902 10904 10904 10924 10925 10921 10929 10932 10938 10942 10949 10957 10962 10966 10969 10972 10975 10981 10983 10989 10992 10999 11006 11010 11014 11014 11015 11015 11011 11014 11016 11020 11020
10840 10841 10844 10846 10850 10854 10859 10864 10869 10875 10880 10886 10889 10891 10896 10912 10911 10915 10922 10923 10930 10935 10940 10950 10954 10957 10960 10965 10966 10972 10975 10982 10986 10993 11000 11003 11007 11009 11010 11010 11008 11012 11014 11017 11019
10827 10829 10832 10834 10837 10842 10845 10850 10856 10861 10868 10874 10876 10880 10887 10898 10900 10903 10903 10912 10917 10923 10930 10940 10944 10946 10948 10953 10959 10963 10968 10972 10977 10985 10991 10992 10997 11003 11005 11005 11003 11007 11009 11012 11016
10811 10814 10818 10821 10822 10829 10832 10834 10842 10850 10854 10858 10862 10864 10868 10879 10885 10888 10892 10902 10906 10914 10920 10925 10933 10933 10935 10943 10952 10955 10961 10961 10966 10974 10981 10984 10988 10994 10997 11000 10999 11002 11005 11007 11012
10795 10796 10800 10804 10807 10814 10816 10819 10828 10833 10835 10839 10844 10846 10854 10862 10869 10879 10878 10890 10896 10901 10905 10916 10923 10916 10926 10935 10942 10945 10951 10952 10956 10964 10972 10974 10981 10983 10987 10991 10994 10997 10999 11003 11007
10772 10771 10774 10781 10787 10793 10797 10803 10811 10815 10818 10821 10827 10825 10836 10848 10854 10862 10865 10871 10883 10887 10893 10904 10908 10899 10918 10926 10932 10935 10938 10944 10948 10954 10962 10968 10971 10974 10978 10982 10986 10991 10993 10998 11002
10748 10750 10752 10760 10766 10769 10774 10781 10791 10797 10802 10799 10807 10805 10818 10830 10835 10844 10851 10854 10866 10875 10877 10890 10893 10895 10906 10915 10921 10925 10927 10933 10939 10946 10952 10959 10964 10966 10969 10973 10978 10982 10989 10993 10998
10721 10721 10725 10729 10736 10740 10745 10756 10765 10772 10772 10773 10782 10790 10800 10816 10814 10824 10827 10841 10851 10858 10865 10882 10880 10884 10893 10902 10907 10909 10917 10924 10930 10939 10944 10948 10954 10959 10961 10965 10969 10973 10981 10987 10993
10693 10692 10694 10695 10702 10709 10715 10724 10734 10740 10743 10752 10764 10773 10786 10801 10802 10803 10818 10828 10835 10842 10855 10865 10866 10875 10881 10886 10896 10894 10908 10916 10921 10929 10934 10939 10946 10952 10954 10957 10962 10968 10974 10981 10986
10663 10658 10657 10658 10662 10670 10677 10688 10700 10707 10715 10727 10741 10754 10766 10774 10782 10786 10801 10812 10821 10831 10841 10852 10855 10862 10866 10873 10884 10881 10898 10908 10915 10922 10921 10932 10937 10941 10944 10951 10956 10962 10967 10974 10978
10635 10625 10622 10620 10624 10631 10641 10650 10662 10674 10687 10707 10720 10733 10736 10753 10761 10769 10785 10798 10807 10818 10825 10836 10840 10846 10857 10863 10870 10869 10880 10896 10907 10910 10910 10925 10928 10930 10938 10942 10948 10954 10960 10967 10973
10610 10599 10592 10591 10593 10598 10607 10616 10627 10641 10662 10679 10688 10702 10709 10727 10742 10750 10766 10773 10784 10795 10804 10817 10825 10830 10839 10845 10850 10857 10869 10883 10890 10896 10901 10918 10915 10927 10931 10933 10938 10943 10950 10957 10962
10591 10580 10571 10567 10567 10571 10578 10585 10597 10617 10633 10645 10657 10674 10684 10704 10717 10727 10736 10750 10762 10774 10785 10799 10807 10812 10819 10824 10836 10846 10852 10863 10878 10890 10894 10906 10907 10918 10920 10926 10931 10936 10941 10948 10953
10578 10565 10558 10552 10551 10551 10555 10562 10576 10587 10600 10612 10623 10638 10656 10674 10686 10697 10709 10724 10737 10754 10766 10779 10792 10795 10800 10820 10825 10831 10837 10850 10866 10879 10886 10890 10901 10906 10913 10919 10923 10928 10934 10939 10946
10572 10558 10548 10543 10540 10539 10543 10547 10552 10561 10572 10581 10592 10607 10621 10638 10651 10663 10676 10699 10714 10726 10741 10752 10768 10774 10792 10798 10803 10810 10819 10834 10846 10864 10873 10879 10887 10898 10906 10915 10918 10921 10924 10930 10936
10567 10553 10544 10535 10532 10532 10532 10534 10536 10541 10547 10555 10564 10578 10590 10606 10619 10632 10647 10666 10682 10694 10708 10724 10743 10756 10766 10772 10787 10800 10810 10818 10831 10847 10861 10868 10874 10886 10896 10903 10911 10912 10915 10919 10924
10566 10551 10538 10531 10524 10521 10521 10521 10522 10524 10528 10533 10541 10556 10567 10581 10593 10609 10620 10635 10647 10666 10682 10699 10720 10736 10749 10757 10765 10776 10784 10792 10810 10831 10846 10856 10860 10869 10883 10893 10903 10909 10911 10910 10918
10566 10549 10537 10526 10520 10514 10511 10511 10510 10512 10514 10516 10523 10531 10539 10554 10567 10584 10597 10611 10621 10639 10657 10674 10694 10711 10723 10732 10745 10756 10764 10773 10793 10810 10824 10836 10848 10853 10869 10879 10890 10901 10906 10908 10908
10571 10554 10538 10525 10515 10508 10503 10501 10501 10501 10502 10501 10506 10511 10517 10528 10539 10556 10573 10586 10599 10616 10634 10653 10668 10685 10700 10709 10721 10735 10745 10754 10771 10790 10803 10817 10833 10839 10853 10865 10881 10885 10895 10898 10901
10572 10557 10541 10526 10515 10505 10497 10492 10489 10486 10486 10485 10486 10491 10497 10506 10517 10528 10545 10560 10573 10592 10610 10629 10644 10661 10677 10689 10697 10710 10723 10731 10748 10765 10783 10800 10816 10816 10830 10845 10860 10872 10877 10882 10888